OZ7MKS Weather Reports


time (UTC)temp
F
wind
direction
speed
knots
gust
knots
rain 1hr
in
rain 24hr
in
rain mn
in
humidity
%
barometer
mb
20260505205504 44 323 0.0 0.0 0.00 0.00 0.00 84 1013.5
20260505205003 44 323 0.0 0.0 0.00 0.00 0.00 84 1013.4
20260505204504 44 323 0.0 0.0 0.00 0.00 0.00 83 1013.4
20260505204004 44 323 0.0 0.9 0.00 0.00 0.00 83 1013.4
20260505203504 44 323 0.0 0.0 0.00 0.00 0.00 83 1013.4
20260505203004 44 323 0.0 0.9 0.00 0.00 0.00 83 1013.4
20260505202504 45 323 0.9 1.7 0.00 0.00 0.00 83 1013.4
20260505202004 45 323 0.0 0.0 0.00 0.00 0.00 83 1013.3
20260505201504 45 323 0.0 0.0 0.00 0.00 0.00 83 1013.3
20260505201004 45 323 0.0 0.9 0.00 0.00 0.00 82 1013.2
20260505200503 45 323 0.0 0.9 0.00 0.00 0.00 82 1013.2
20260505200003 45 323 0.0 2.6 0.00 0.00 0.00 82 1013.2
20260505195504 45 322 0.9 2.6 0.00 0.00 0.00 81 1013.2
20260505195003 45 324 0.9 2.6 0.00 0.00 0.00 81 1013.2
20260505194503 45 324 0.0 0.0 0.00 0.00 0.00 81 1013.3
20260505194004 45 324 0.9 1.7 0.00 0.00 0.00 80 1013.2
20260505193504 45 324 0.0 2.6 0.00 0.00 0.00 79 1013.1
20260505193004 45 324 0.9 2.6 0.00 0.00 0.00 79 1013.1
20260505192504 46 325 1.7 2.6 0.00 0.00 0.00 78 1013.1
20260505191503 46 336 0.9 2.6 0.00 0.00 0.00 77 1013.1
20260505191004 46 337 1.7 2.6 0.00 0.00 0.00 77 1013.0
20260505190004 46 329 0.9 2.6 0.00 0.00 0.00 76 1013.0
20260505185504 46 324 1.7 5.2 0.00 0.00 0.00 76 1012.9
20260505185004 46 306 0.9 2.6 0.00 0.00 0.00 76 1012.9
20260505184504 46 312 1.7 2.6 0.00 0.00 0.00 77 1012.9
20260505183504 47 324 1.7 2.6 0.00 0.00 0.00 76 1012.8
20260505182504 47 325 0.9 2.6 0.00 0.00 0.00 77 1012.9
20260505182004 47 320 0.9 5.2 0.00 0.00 0.00 77 1012.9
20260505181503 47 290 0.9 4.3 0.00 0.00 0.00 77 1012.8
20260505181004 48 316 0.9 2.6 0.00 0.00 0.00 77 1012.8
20260505180004 48 337 0.9 4.3 0.00 0.00 0.00 76 1012.7
20260505175503 48 316 1.7 5.2 0.00 0.00 0.00 76 1012.8
20260505175003 49 330 0.9 6.1 0.00 0.00 0.00 76 1012.7
20260505174504 49 315 0.9 2.6 0.00 0.00 0.00 76 1012.7
20260505174004 49 291 0.9 6.1 0.00 0.00 0.00 75 1012.7
20260505173503 49 326 1.7 4.3 0.00 0.00 0.00 75 1012.7
20260505173004 49 297 1.7 2.6 0.00 0.00 0.00 75 1012.7
20260505172004 50 343 2.6 5.2 0.00 0.00 0.00 75 1012.6
20260505171004 50 265 0.9 5.2 0.00 0.00 0.00 76 1012.6
20260505170503 50 342 1.7 2.6 0.00 0.00 0.00 77 1012.6
20260505165004 51 318 1.7 5.2 0.00 0.00 0.00 75 1012.7
20260505164504 52 19 0.9 6.1 0.00 0.00 0.00 74 1012.7
20260505164004 52 353 2.6 6.1 0.00 0.00 0.00 72 1012.7
20260505163503 52 296 1.7 6.1 0.00 0.00 0.00 72 1012.7
20260505163004 52 276 2.6 6.1 0.00 0.00 0.00 71 1012.7
20260505162504 52 267 1.7 7.0 0.00 0.00 0.00 71 1012.7
20260505162003 52 283 2.6 8.7 0.00 0.00 0.00 70 1012.7
20260505161003 53 327 1.7 5.2 0.00 0.00 0.00 68 1012.7
20260505160503 53 333 2.6 7.8 0.00 0.00 0.00 66 1012.7
20260505152504 54 337 1.7 7.0 0.00 0.00 0.00 65 1012.7
20260505152004 54 7 2.6 5.2 0.00 0.00 0.00 64 1012.7
20260505151504 54 346 2.6 6.1 0.00 0.00 0.00 62 1012.6
20260505151004 54 300 2.6 7.8 0.00 0.00 0.00 64 1012.6
20260505150504 55 332 2.6 7.0 0.00 0.00 0.00 62 1012.6
20260505140504 56 336 2.6 7.0 0.00 0.00 0.00 57 1012.6
20260505125004 57 269 4.3 7.8 0.00 0.00 0.00 58 1012.5
20260505124004 57 272 0.9 7.8 0.00 0.00 0.00 55 1012.4
20260505123504 57 299 2.6 7.8 0.00 0.00 0.00 53 1012.4
20260505123004 57 24 1.7 6.1 0.00 0.00 0.00 52 1012.4
20260505122503 57 303 0.9 10.4 0.00 0.00 0.00 50 1012.4
20260505122003 57 295 2.6 7.8 0.00 0.00 0.00 51 1012.4
20260505121503 57 237 2.6 8.7 0.00 0.00 0.00 50 1012.5
20260505120504 56 215 2.6 7.8 0.00 0.00 0.00 49 1012.4
20260505115004 56 296 0.9 4.3 0.00 0.00 0.00 55 1012.5
20260505114504 56 269 2.6 7.0 0.00 0.00 0.00 55 1012.4
20260505114004 56 298 3.5 6.1 0.00 0.00 0.00 54 1012.5
20260505113503 56 240 4.3 10.4 0.00 0.00 0.00 53 1012.5
20260505113004 56 243 3.5 10.4 0.00 0.00 0.00 55 1012.5
20260505112503 56 270 4.3 7.8 0.00 0.00 0.00 57 1012.5
20260505112004 56 59 1.7 6.1 0.00 0.00 0.00 61 1012.5
20260505111504 56 265 6.1 10.4 0.00 0.00 0.00 60 1012.5
20260505111003 55 273 3.5 8.7 0.00 0.00 0.00 62 1012.5
20260505110503 56 315 1.7 10.4 0.00 0.00 0.00 60 1012.6
20260505102004 54 274 0.9 6.1 0.00 0.00 0.00 63 1012.6
20260505101503 54 272 1.7 2.6 0.00 0.00 0.00 63 1012.6
20260505101004 54 331 1.7 7.0 0.00 0.00 0.00 64 1012.5
20260505100503 54 277 0.9 7.0 0.00 0.00 0.00 66 1012.5
20260505100004 54 272 0.0 2.6 0.00 0.00 0.00 66 1012.4
20260505095504 53 272 1.7 5.2 0.00 0.00 0.00 67 1012.4
20260505095003 54 281 0.9 6.1 0.00 0.00 0.00 67 1012.4
20260505094503 54 284 2.6 7.0 0.00 0.00 0.00 69 1012.5
20260505094004 54 348 0.9 4.3 0.00 0.00 0.00 67 1012.5
20260505093503 54 343 2.6 7.0 0.00 0.00 0.00 70 1012.5
20260505093004 54 314 0.9 2.6 0.00 0.00 0.00 71 1012.6
20260505092503 54 285 1.7 2.6 0.00 0.00 0.00 72 1012.5
20260505092004 53 12 0.9 2.6 0.00 0.00 0.00 71 1012.6
20260505091504 53 302 0.9 2.6 0.00 0.00 0.00 69 1012.6
20260505091003 53 265 1.7 5.2 0.00 0.00 0.00 71 1012.5
20260505090504 53 332 1.7 2.6 0.00 0.00 0.00 71 1012.6
20260505090004 53 324 1.7 5.2 0.00 0.00 0.00 71 1012.7
20260505085504 52 317 1.7 7.0 0.00 0.00 0.00 67 1012.8
20260505085003 52 279 1.7 6.1 0.00 0.00 0.00 69 1012.7
20260505084504 52 303 3.5 7.8 0.00 0.00 0.00 69 1012.7
20260505084003 52 315 1.7 6.1 0.00 0.00 0.00 69 1012.7
20260505083504 51 309 0.9 4.3 0.00 0.00 0.00 70 1012.7
20260505082503 51 299 1.7 4.3 0.00 0.00 0.00 72 1012.6
20260505082004 51 253 1.7 5.2 0.00 0.00 0.00 72 1012.6
20260505081503 50 282 0.9 6.1 0.00 0.00 0.00 72 1012.6
20260505081004 50 281 1.7 6.1 0.00 0.00 0.00 72 1012.6
20260505080503 50 276 2.6 7.0 0.00 0.00 0.00 72 1012.6
20260505080003 50 264 4.3 7.0 0.00 0.00 0.00 73 1012.6
20260505075503 50 336 0.9 4.3 0.00 0.00 0.00 74 1012.6
20260505074503 50 306 2.6 4.3 0.00 0.00 0.00 74 1012.6
20260505074003 50 273 1.7 5.2 0.00 0.00 0.00 74 1012.7
20260505073503 49 266 2.6 6.1 0.00 0.00 0.00 74 1012.6
20260505073004 49 275 3.5 8.7 0.00 0.00 0.00 74 1012.6
20260505072503 49 270 3.5 8.7 0.00 0.00 0.00 75 1012.7
20260505072004 48 284 1.7 6.1 0.00 0.00 0.00 76 1012.7
20260505071004 48 355 1.7 6.1 0.00 0.00 0.00 75 1012.7
20260505070503 48 309 1.7 6.1 0.00 0.00 0.00 75 1012.7
20260505070003 48 279 2.6 7.0 0.00 0.00 0.00 76 1012.6
20260505065504 47 283 3.5 6.1 0.00 0.00 0.00 78 1012.7
20260505065003 47 334 1.7 4.3 0.00 0.00 0.00 78 1012.6
20260505064503 47 325 2.6 5.2 0.00 0.00 0.00 77 1012.6
20260505064004 47 322 1.7 2.6 0.00 0.00 0.00 79 1012.6
20260505063504 47 313 1.7 6.1 0.00 0.00 0.00 79 1012.7
20260505063004 47 313 0.9 2.6 0.00 0.00 0.00 79 1012.6
20260505062504 47 336 1.7 7.0 0.00 0.00 0.00 81 1012.7
20260505062004 47 284 1.7 5.2 0.00 0.00 0.00 81 1012.7
20260505061504 47 296 2.6 6.1 0.00 0.00 0.00 82 1012.6
20260505055505 46 336 0.9 5.2 0.00 0.00 0.00 84 1012.7
20260505055003 45 308 3.5 8.7 0.00 0.00 0.00 84 1012.7
20260505054504 45 9 1.7 2.6 0.00 0.00 0.00 85 1012.6
20260505054004 45 299 1.7 7.0 0.00 0.00 0.00 87 1012.6
20260505053004 45 328 2.6 8.7 0.00 0.00 0.00 89 1012.6
20260505052503 45 283 0.9 5.2 0.00 0.00 0.00 89 1012.6
20260505052003 45 302 0.9 2.6 0.00 0.00 0.00 90 1012.4
20260505051504 45 337 2.6 7.0 0.00 0.00 0.00 91 1012.4
20260505051004 44 314 0.9 5.2 0.00 0.00 0.00 92 1012.4
20260505041504 43 276 1.7 5.2 0.00 0.00 0.00 95 1012.3
20260505041004 43 274 0.9 2.6 0.00 0.00 0.00 95 1012.2
20260505040503 43 275 0.9 2.6 0.00 0.00 0.00 95 1012.2
20260505035503 43 274 0.9 2.6 0.00 0.00 0.00 94 1012.1
20260505035004 43 273 0.9 2.6 0.00 0.00 0.00 95 1012.1
20260505034504 43 296 0.9 1.7 0.00 0.00 0.00 95 1012.1
20260505033504 44 296 0.9 2.6 0.00 0.00 0.00 95 1012.2
20260505033004 44 296 0.9 2.6 0.00 0.00 0.00 95 1012.2
20260505032504 44 312 0.9 2.6 0.00 0.00 0.00 95 1012.2
20260505032003 44 296 0.9 4.3 0.00 0.00 0.00 95 1012.2
20260505031503 45 289 1.7 2.6 0.00 0.00 0.00 95 1012.2
20260505030004 45 269 1.7 2.6 0.00 0.00 0.00 96 1012.2
20260505025504 45 275 2.6 5.2 0.00 0.00 0.00 96 1012.1
20260505025004 44 273 1.7 2.6 0.00 0.00 0.00 96 1012.1
20260505024503 44 243 0.9 2.6 0.00 0.00 0.00 96 1012.2
20260505024004 44 249 0.9 1.7 0.00 0.00 0.00 95 1012.2
20260505023503 44 249 0.9 2.6 0.00 0.00 0.00 95 1012.2
20260505023004 44 250 0.9 2.6 0.00 0.00 0.00 95 1012.2
20260505022504 44 250 1.7 2.6 0.00 0.00 0.00 95 1012.2
20260505022004 43 250 0.9 2.6 0.00 0.00 0.00 95 1012.3
20260505021504 43 251 1.7 4.3 0.00 0.00 0.00 95 1012.3
20260505021004 43 243 1.7 2.6 0.00 0.00 0.00 95 1012.3
20260505020503 43 261 0.9 2.6 0.00 0.00 0.00 95 1012.3
20260505015503 43 238 1.7 5.2 0.00 0.00 0.00 95 1012.3
20260505015004 43 257 1.7 5.2 0.00 0.00 0.00 95 1012.4
20260505014004 42 264 1.7 2.6 0.00 0.00 0.00 95 1012.4
20260505013503 42 259 1.7 5.2 0.00 0.00 0.00 95 1012.4
20260505013004 43 244 1.7 5.2 0.00 0.00 0.00 95 1012.4
20260505012503 43 248 2.6 5.2 0.00 0.00 0.00 95 1012.4
20260505012004 42 249 2.6 6.1 0.00 0.00 0.00 95 1012.4
20260505011504 42 268 4.3 7.0 0.00 0.00 0.00 95 1012.4
20260505011004 42 263 2.6 6.1 0.00 0.00 0.00 95 1012.4
20260505010503 42 265 2.6 5.2 0.00 0.00 0.00 94 1012.5
20260505010004 42 259 1.7 2.6 0.00 0.00 0.00 95 1012.5
20260505005004 42 266 3.5 6.1 0.00 0.01 0.00 95 1012.5
20260505004504 42 261 3.5 6.1 0.00 0.01 0.00 94 1012.6
20260505004003 43 255 1.7 2.6 0.00 0.01 0.00 94 1012.6
20260505003503 43 250 1.7 2.6 0.00 0.01 0.00 94 1012.7
20260505003004 43 250 1.7 2.6 0.00 0.01 0.00 94 1012.7
20260505002504 43 234 2.6 4.3 0.00 0.01 0.00 94 1012.7
20260505002004 43 240 1.7 4.3 0.00 0.01 0.00 94 1012.7
20260505001503 43 247 2.6 6.1 0.00 0.01 0.00 94 1012.7
20260505000504 43 246 1.7 2.6 0.00 0.01 0.00 94 1012.7
20260504235004 43 256 2.6 4.3 0.00 0.01 0.00 95 1012.7
20260504234504 43 271 2.6 7.0 0.00 0.01 0.00 95 1012.7
20260504233504 43 246 1.7 6.1 0.00 0.02 0.00 95 1012.8
20260504233004 43 235 2.6 5.2 0.00 0.02 0.00 95 1012.8
20260504232504 43 260 1.7 4.3 0.00 0.03 0.00 95 1012.8
20260504232004 43 242 0.9 6.1 0.00 0.04 0.00 95 1012.8
20260504231004 43 252 1.7 2.6 0.00 0.05 0.00 95 1012.8
20260504230504 43 234 1.7 2.6 0.00 0.06 0.00 95 1012.9
20260504230004 43 234 1.7 2.6 0.00 0.06 0.00 95 1012.9
20260504225003 43 236 1.7 2.6 0.00 0.06 0.00 94 1012.9
20260504224003 42 252 0.0 0.0 0.00 0.06 0.00 94 1012.9
20260504223504 42 252 0.0 0.9 0.00 0.06 0.00 93 1012.9
20260504223004 43 252 0.9 1.7 0.00 0.06 0.00 93 1012.9
20260504222504 43 252 0.9 1.7 0.00 0.06 0.00 94 1012.9
20260504222003 43 252 0.9 2.6 0.00 0.06 0.00 94 1012.8
20260504221504 43 252 0.9 1.7 0.00 0.06 0.00 93 1012.8
20260504221004 43 252 0.9 1.7 0.00 0.06 0.00 93 1012.9
20260504220504 43 252 0.9 2.6 0.00 0.06 0.00 93 1012.8
20260504215503 43 261 1.7 2.6 0.00 0.06 0.06 93 1012.9
20260504215004 43 262 0.9 2.6 0.00 0.06 0.06 93 1013.0
20260504214003 43 269 2.6 5.2 0.00 0.06 0.06 93 1013.0
20260504213503 43 265 1.7 2.6 0.00 0.06 0.06 93 1013.0
20260504213004 44 263 2.6 5.2 0.00 0.06 0.06 93 1013.0
20260504212503 44 269 2.6 5.2 0.00 0.06 0.06 92 1013.0
20260504212004 44 259 3.5 6.1 0.00 0.06 0.06 92 1013.0
20260504211004 44 271 3.5 7.0 0.00 0.06 0.06 92 1013.0
20260504210004 44 255 1.7 2.6 0.00 0.06 0.06 92 1013.0